Regional Weather Roundup
Issued by NWS

Home | Current Version | Previous Version | Text Only | Print | Product List | Glossary Off
Versions: 1 2 3 4 5 6 7 8 9 10 11 12 13 14 15 16 17 18 19 20 21 22 23 24 25 26

000
ASUS45 KTFX 241510
RWRMT
MONTANA REGIONAL WEATHER ROUNDUP
NATIONAL WEATHER SERVICE GREAT FALLS MT
900 AM MDT TUE APR 24 2018

NOTE: "FAIR" INDICATES FEW OR NO CLOUDS BELOW 12000 FEET WITH NO
SIGNIFICANT WEATHER AND/OR OBSTRUCTIONS TO VISIBILITY.

MTZ001>007-043-241600-
WEST OF THE DIVIDE

CITY           SKY/WX    TMP DP  RH WIND       PRES   REMARKS
KALISPELL      FAIR      41  28  60 NE8       30.48S
MISSOULA       FAIR      38  28  67 CALM      30.49F
BUTTE          FAIR      29  24  82 CALM      30.50S
MULLAN PASS    FAIR      34  21  59 SE10G23   30.40R WCI  26
ANACONDA         N/A     37  27  65 SE5       30.50S
DEER LODGE       N/A     36  28  75 SE8       30.51F WCI  29
HAMILTON         N/A     39  27  60 MISG      30.49F
RONAN            N/A     41  30  65 N5        30.49R
$$

MTZ008-052>055-241600-
SOUTHWEST MONTANA

CITY           SKY/WX    TMP DP  RH WIND       PRES   REMARKS
BOZEMAN        FAIR      35  29  78 CALM      30.53S
DILLON         FAIR      32  27  81 CALM      30.50R
ENNIS          SUNNY     34  28  80 VRB6      30.52S WCI  29
W YELLOWSTONE  FAIR      28  16  59 CALM      30.45R
THREE FORKS      N/A     30  29  96 CALM      30.46R VSB 0
$$

MTZ009-010-012-014-046-048-049-054-241600-
EAST SLOPES AND CENTRAL MONTANA

CITY           SKY/WX    TMP DP  RH WIND       PRES   REMARKS
CUT BANK       FAIR      40  26  57 S5        30.40F
GREAT FALLS    FAIR      43  28  55 S13       30.46F
HELENA         FAIR      36  29  75 N3        30.51F
CHOTEAU          N/A     43  23  45 S13       30.45F
WHITE SULPHUR    N/A     27  25  93 CALM      30.50S
$$

MTZ011-013-016-021-045-047-050-051-241600-
NORTH CENTRAL MONTANA

CITY           SKY/WX    TMP DP  RH WIND       PRES   REMARKS
HAVRE          FAIR      46  29  51 SW18      30.46F
LEWISTOWN      FAIR      38  30  73 E6        30.48F
N BAR RANCH    FAIR      36  28  75 NW5       30.51S
CHINOOK          N/A     45  30  57 CALM      30.47F
$$

MTZ017>020-022>027-061-062-241600-
NORTHEAST MONTANA

CITY           SKY/WX    TMP DP  RH WIND       PRES   REMARKS
GLASGOW        FAIR      44  30  57 CALM      30.48S
GLENDIVE       FAIR      40  36  86 S5        30.51R
JORDAN           N/A     44  33  65 VRB5      30.49S
MALTA          SUNNY     41  32  70 SW6       30.46F
SIDNEY         FAIR      41  33  73 S7        30.51S
WOLF POINT     FAIR      40  28  62 CALM      30.50S
PLENTYWOOD       N/A     45  27  49 CALM      30.47F
POPLAR           N/A     41  27  56 S3        30.50F
$$

MTZ028>42-056>058-241600-
SOUTHCENTRAL AND SOUTHEAST MONTANA

CITY           SKY/WX    TMP DP  RH WIND       PRES   REMARKS
BAKER          FOG       31  31 100 W3        30.51R VSB<1/4
BILLINGS       FAIR      37  34  89 SW12      30.52S WCI  29
LIVINGSTON     CLOUDY    34  31  88 W3        30.52S
MILES CITY     FAIR      41  37  86 W7        30.51S
BIG TIMBER     SUNNY     30  28  93 W8        30.53S WCI  23
EKALAKA          N/A     32  29  89 SW5       30.43R
FORSYTH          N/A     39  36  87 W5        30.52S
$$

REGIONAL REPORTS...DAKOTAS

CITY           SKY/WX    TMP DP  RH WIND       PRES   REMARKS
WILLISTON      FAIR      43  29  57 S5        30.49F
MINOT          FAIR      47  26  44 NW10      30.45S
DICKINSON      FAIR      45  23  42 N8        30.46R
BEACH          FAIR      43  32  65 CALM      30.52S
CROSBY         FAIR      48  25  40 W14       30.47F
TIOGA          FAIR      45  28  53 W12       30.48S
WATFORD CITY   FAIR      43  32  65 W6        30.49S
BISMARCK       FAIR      45  31  58 N12       30.45R
GRAND FORKS    FAIR      43  34  70 N17       30.39S
FARGO          FAIR      45  39  79 NE12      30.35S
BUFFALO SD       N/A     40 N/A N/A NW17      30.41S
RAPID CITY     FLURRIES  37  32  82 N20G25    30.46R WCI  27
$$

REGIONAL REPORTS...WYOMING/IDAHO/WASHINGTON

CITY           SKY/WX    TMP DP  RH WIND       PRES   REMARKS
GILLETTE       CLOUDY    34  31  88 NW9       30.49S WCI  27
SHERIDAN       PTSUNNY   42  28  57 SW6       30.51S
BUFFALO WY     CLOUDY    39  25  57 NW8       30.50S
CODY           FAIR      39  23  52 NE6       30.51S
YELLOWSTONE LA   N/A     27  15  61 VRB6      30.46S WCI  20
IDAHO FALLS    FAIR      38  26  62 N15       30.41R WCI  29
SALMON         FAIR      37  27  67 CALM      30.50S
BOISE          FAIR      49  32  52 SE13G21   30.38R
SPOKANE        FAIR      44  30  57 E13       30.41S
$$

REGIONAL REPORTS...ALBERTA

CITY           SKY/WX    TMP DP  RH WIND       PRES   REMARKS
CALGARY        MOSUNNY   46  19  34 SW3       30.27F
CARDSTON         N/A     52  19  28 SW3         N/A
EDMONTON       MOSUNNY   48  23  37 W6        30.20F
FORT MCMURRAY  SUNNY     54  25  32 W13G18    29.99F
HIGH LEVEL     CLOUDY    46  28  49 N2        29.91R
LETHBRIDGE     MOSUNNY   48  23  37 SW17      30.33F
LLOYDMINSTER   MOSUNNY   46  30  53 SW12      30.21F
MEDICINE HAT   MOSUNNY   52  25  35 S17G24    30.35F
PEACE RIVER    CLOUDY    41  27  56 SW8       30.08S
PINCHER CREEK  SUNNY     48  21  34 W22G30    30.32F
WATERTON GATE    N/A     48  18  29 SW25G37     N/A
$$

REGIONAL REPORTS...SASKATCHEWAN

CITY           SKY/WX    TMP DP  RH WIND       PRES   REMARKS
CYPRESS HILLS    N/A     43  21  42 SW12G17     N/A
ESTEVAN        MOSUNNY   48  28  46 W8        30.46S
MOOSE JAW        N/A     52  21  30 SW18        N/A
PRINCE ALBERT  MOSUNNY   45  30  57 SW9       30.30F
REGINA         MOSUNNY   48  28  46 W14       30.42F
ROCKGLEN         N/A     48  21  34 SW12        N/A
SASKATOON      MOSUNNY   46  30  53 SW13      30.33F
SWIFT CURRENT  SUNNY     50  25  37 SW18      30.38F
VAL MARIE        N/A     43  28  56 SW3         N/A
$$




USA.gov is the U.S. government's official web portal to all federal, state and local government web resources and services.